Date_Time,Julian_Date,Latitude,Longitude,Instrument_Depth,U,V,Speed,Direction
(yyyy-mm-dd hh:mn:ss UTC),(JD),(+ deg. North),(+ deg. East),(m),(cm/s),(cm/s),(cm/s),(deg True)
1978-07-26 15:00:00 UTC,2443716.125000,28.8669,-94.6981,0105,19.86,-6.84,21.0000,109.0000
1978-07-26 16:00:00 UTC,2443716.166667,28.8669,-94.6981,0105,21.75,-7.49,23.0000,109.0000
1978-07-26 17:00:00 UTC,2443716.208333,28.8669,-94.6981,0105,20.40,-8.24,22.0000,112.0000
1978-07-26 18:00:00 UTC,2443716.250000,28.8669,-94.6981,0105,20.31,-10.80,23.0000,118.0000
1978-07-26 19:00:00 UTC,2443716.291667,28.8669,-94.6981,0105,20.99,-11.64,24.0000,119.0000
1978-07-26 20:00:00 UTC,2443716.333333,28.8669,-94.6981,0105,25.61,-13.61,29.0000,118.0000
1978-07-26 21:00:00 UTC,2443716.375000,28.8669,-94.6981,0105,30.81,-14.37,34.0000,115.0000
1978-07-26 22:00:00 UTC,2443716.416667,28.8669,-94.6981,0105,29.66,-14.47,33.0000,116.0000
1978-07-26 23:00:00 UTC,2443716.458333,28.8669,-94.6981,0105,28.84,-8.27,30.0000,106.0000
1978-07-26 23:30:00 UTC,2443716.479167,28.8669,-94.6981,0105,29.48,-9.58,31.0000,108.0000
1978-07-27 01:00:00 UTC,2443716.541667,28.8669,-94.6981,0105,31.56,-9.65,33.0000,107.0000
1978-07-27 02:00:00 UTC,2443716.583333,28.8669,-94.6981,0105,31.88,-8.54,33.0000,105.0000
1978-07-27 03:00:00 UTC,2443716.625000,28.8669,-94.6981,0105,33.83,-12.31,36.0000,110.0000
1978-07-27 04:00:00 UTC,2443716.666667,28.8669,-94.6981,0105,31.46,-15.34,35.0000,116.0000
1978-07-27 05:00:00 UTC,2443716.708333,28.8669,-94.6981,0105,29.13,-10.60,31.0000,110.0000
1978-07-27 06:00:00 UTC,2443716.750000,28.8669,-94.6981,0105,24.85,-10.55,27.0000,113.0000
1978-07-27 07:00:00 UTC,2443716.791667,28.8669,-94.6981,0105,28.47,-5.53,29.0000,101.0000
1978-07-27 08:00:00 UTC,2443716.833333,28.8669,-94.6981,0105,34.91,2.44,35.0000,86.0000
1978-07-27 09:00:00 UTC,2443716.875000,28.8669,-94.6981,0105,35.99,-0.63,36.0000,91.0000
1978-07-27 10:00:00 UTC,2443716.916667,28.8669,-94.6981,0105,34.00,0.00,34.0000,90.0000
1978-07-27 11:00:00 UTC,2443716.958333,28.8669,-94.6981,0105,37.53,-5.94,38.0000,99.0000
1978-07-27 12:00:00 UTC,2443717.000000,28.8669,-94.6981,0105,36.44,-6.42,37.0000,100.0000
1978-07-27 13:00:00 UTC,2443717.041667,28.8669,-94.6981,0105,30.15,-13.42,33.0000,114.0000
1978-07-27 14:00:00 UTC,2443717.083333,28.8669,-94.6981,0105,24.86,-14.94,29.0000,121.0000
1978-07-27 15:00:00 UTC,2443717.125000,28.8669,-94.6981,0105,23.61,-13.09,27.0000,119.0000
1978-07-27 16:00:00 UTC,2443717.166667,28.8669,-94.6981,0105,19.90,-13.42,24.0000,124.0000
1978-07-27 17:00:00 UTC,2443717.208333,28.8669,-94.6981,0105,22.95,-7.02,24.0000,107.0000
1978-07-27 18:00:00 UTC,2443717.250000,28.8669,-94.6981,0105,29.67,-11.99,32.0000,112.0000
1978-07-27 19:00:00 UTC,2443717.291667,28.8669,-94.6981,0105,31.61,-5.01,32.0000,99.0000
1978-07-27 20:00:00 UTC,2443717.333333,28.8669,-94.6981,0105,29.96,-1.57,30.0000,93.0000
1978-07-27 21:00:00 UTC,2443717.375000,28.8669,-94.6981,0105,29.11,-7.26,30.0000,104.0000
1978-07-27 22:00:00 UTC,2443717.416667,28.8669,-94.6981,0105,32.95,-1.73,33.0000,93.0000
1978-07-27 23:00:00 UTC,2443717.458333,28.8669,-94.6981,0105,28.69,-8.77,30.0000,107.0000
1978-07-27 23:30:00 UTC,2443717.479167,28.8669,-94.6981,0105,26.57,-15.97,31.0000,121.0000
1978-07-28 01:00:00 UTC,2443717.541667,28.8669,-94.6981,0105,22.30,-21.53,31.0000,134.0000
1978-07-28 02:00:00 UTC,2443717.583333,28.8669,-94.6981,0105,20.51,-20.51,29.0000,135.0000
1978-07-28 03:00:00 UTC,2443717.625000,28.8669,-94.6981,0105,20.15,-20.86,29.0000,136.0000
1978-07-28 04:00:00 UTC,2443717.666667,28.8669,-94.6981,0105,14.84,-23.75,28.0000,148.0000
1978-07-28 05:00:00 UTC,2443717.708333,28.8669,-94.6981,0105,19.40,-21.55,29.0000,138.0000
1978-07-28 06:00:00 UTC,2443717.750000,28.8669,-94.6981,0105,18.88,-23.31,30.0000,141.0000
1978-07-28 07:00:00 UTC,2443717.791667,28.8669,-94.6981,0105,20.07,-22.29,30.0000,138.0000
1978-07-28 08:00:00 UTC,2443717.833333,28.8669,-94.6981,0105,19.03,-21.89,29.0000,139.0000
1978-07-28 09:00:00 UTC,2443717.875000,28.8669,-94.6981,0105,13.57,-24.49,28.0000,151.0000
1978-07-28 10:00:00 UTC,2443717.916667,28.8669,-94.6981,0105,12.86,-19.07,23.0000,146.0000
1978-07-28 11:00:00 UTC,2443717.958333,28.8669,-94.6981,0105,8.62,-11.03,14.0000,142.0000
1978-07-28 12:00:00 UTC,2443718.000000,28.8669,-94.6981,0105,3.52,-8.28,9.0000,157.0000
1978-07-28 13:00:00 UTC,2443718.041667,28.8669,-94.6981,0105,3.08,-8.46,9.0000,160.0000
1978-07-28 14:00:00 UTC,2443718.083333,28.8669,-94.6981,0105,0.17,-10.00,10.0000,179.0000
1978-07-28 15:00:00 UTC,2443718.125000,28.8669,-94.6981,0105,-0.45,-12.99,13.0000,182.0000
1978-07-28 16:00:00 UTC,2443718.166667,28.8669,-94.6981,0105,-1.56,-3.68,4.0000,203.0000
1978-07-28 17:00:00 UTC,2443718.208333,28.8669,-94.6981,0105,-1.97,-0.35,2.0000,260.0000
1978-07-28 18:00:00 UTC,2443718.250000,28.8669,-94.6981,0105,2.88,0.83,3.0000,74.0000
1978-07-28 19:00:00 UTC,2443718.291667,28.8669,-94.6981,0105,8.73,2.18,9.0000,76.0000
1978-07-28 20:00:00 UTC,2443718.333333,28.8669,-94.6981,0105,9.21,3.91,10.0000,67.0000
1978-07-28 21:00:00 UTC,2443718.375000,28.8669,-94.6981,0105,10.06,6.54,12.0000,57.0000
1978-07-28 22:00:00 UTC,2443718.416667,28.8669,-94.6981,0105,8.90,6.47,11.0000,54.0000
1978-07-28 23:00:00 UTC,2443718.458333,28.8669,-94.6981,0105,11.66,9.44,15.0000,51.0000
1978-07-28 23:30:00 UTC,2443718.479167,28.8669,-94.6981,0105,15.41,7.18,17.0000,65.0000
1978-07-29 01:00:00 UTC,2443718.541667,28.8669,-94.6981,0105,14.00,5.38,15.0000,69.0000
1978-07-29 02:00:00 UTC,2443718.583333,28.8669,-94.6981,0105,14.92,1.57,15.0000,84.0000
1978-07-29 03:00:00 UTC,2443718.625000,28.8669,-94.6981,0105,15.38,-4.41,16.0000,106.0000
1978-07-29 04:00:00 UTC,2443718.666667,28.8669,-94.6981,0105,11.48,-6.10,13.0000,118.0000
1978-07-29 05:00:00 UTC,2443718.708333,28.8669,-94.6981,0105,10.52,-7.64,13.0000,126.0000
1978-07-29 06:00:00 UTC,2443718.750000,28.8669,-94.6981,0105,9.00,-10.72,14.0000,140.0000
1978-07-29 07:00:00 UTC,2443718.791667,28.8669,-94.6981,0105,7.77,-6.29,10.0000,129.0000
1978-07-29 08:00:00 UTC,2443718.833333,28.8669,-94.6981,0105,9.89,-4.82,11.0000,116.0000
1978-07-29 09:00:00 UTC,2443718.875000,28.8669,-94.6981,0105,10.40,-3.58,11.0000,109.0000
1978-07-29 10:00:00 UTC,2443718.916667,28.8669,-94.6981,0105,10.96,-4.88,12.0000,114.0000
1978-07-29 11:00:00 UTC,2443718.958333,28.8669,-94.6981,0105,5.90,-6.79,9.0000,139.0000
1978-07-29 12:00:00 UTC,2443719.000000,28.8669,-94.6981,0105,1.55,-4.76,5.0000,162.0000
1978-07-29 13:00:00 UTC,2443719.041667,28.8669,-94.6981,0105,0.70,-4.95,5.0000,172.0000
1978-07-29 14:00:00 UTC,2443719.083333,28.8669,-94.6981,0105,0.49,-3.97,4.0000,173.0000
1978-07-29 15:00:00 UTC,2443719.125000,28.8669,-94.6981,0105,-0.56,-3.96,4.0000,188.0000
1978-07-29 16:00:00 UTC,2443719.166667,28.8669,-94.6981,0105,-1.63,-4.73,5.0000,199.0000
1978-07-29 17:00:00 UTC,2443719.208333,28.8669,-94.6981,0105,-0.35,-3.98,4.0000,185.0000
1978-07-29 18:00:00 UTC,2443719.250000,28.8669,-94.6981,0105,-0.73,-2.91,3.0000,194.0000
1978-07-29 19:00:00 UTC,2443719.291667,28.8669,-94.6981,0105,-0.90,-0.44,1.0000,244.0000
1978-07-29 20:00:00 UTC,2443719.333333,28.8669,-94.6981,0105,0.55,1.92,2.0000,16.0000
1978-07-29 21:00:00 UTC,2443719.375000,28.8669,-94.6981,0105,2.76,1.17,3.0000,67.0000
1978-07-29 22:00:00 UTC,2443719.416667,28.8669,-94.6981,0105,3.00,0.10,3.0000,88.0000
1978-07-29 23:00:00 UTC,2443719.458333,28.8669,-94.6981,0105,2.85,0.93,3.0000,72.0000
1978-07-29 23:30:00 UTC,2443719.479167,28.8669,-94.6981,0105,2.98,-0.37,3.0000,97.0000
1978-07-30 01:00:00 UTC,2443719.541667,28.8669,-94.6981,0105,2.78,-2.88,4.0000,136.0000
1978-07-30 02:00:00 UTC,2443719.583333,28.8669,-94.6981,0105,-0.05,-3.00,3.0000,181.0000
1978-07-30 03:00:00 UTC,2443719.625000,28.8669,-94.6981,0105,-2.11,-4.53,5.0000,205.0000
1978-07-30 04:00:00 UTC,2443719.666667,28.8669,-94.6981,0105,-2.02,-8.77,9.0000,193.0000
1978-07-30 05:00:00 UTC,2443719.708333,28.8669,-94.6981,0105,-1.69,-6.79,7.0000,194.0000
1978-07-30 06:00:00 UTC,2443719.750000,28.8669,-94.6981,0105,-2.74,-7.52,8.0000,200.0000
1978-07-30 07:00:00 UTC,2443719.791667,28.8669,-94.6981,0105,-3.28,-3.77,5.0000,221.0000
1978-07-30 08:00:00 UTC,2443719.833333,28.8669,-94.6981,0105,-1.63,-2.52,3.0000,213.0000
1978-07-30 09:00:00 UTC,2443719.875000,28.8669,-94.6981,0105,-1.96,-0.42,2.0000,258.0000
1978-07-30 10:00:00 UTC,2443719.916667,28.8669,-94.6981,0105,-1.49,1.34,2.0000,312.0000
1978-07-30 11:00:00 UTC,2443719.958333,28.8669,-94.6981,0105,-1.72,2.46,3.0000,325.0000
1978-07-30 12:00:00 UTC,2443720.000000,28.8669,-94.6981,0105,5.48,2.44,6.0000,66.0000
1978-07-30 13:00:00 UTC,2443720.041667,28.8669,-94.6981,0105,4.83,1.29,5.0000,75.0000
1978-07-30 14:00:00 UTC,2443720.083333,28.8669,-94.6981,0105,2.50,-4.33,5.0000,150.0000
1978-07-30 15:00:00 UTC,2443720.125000,28.8669,-94.6981,0105,-1.05,-11.95,12.0000,185.0000
1978-07-30 16:00:00 UTC,2443720.166667,28.8669,-94.6981,0105,-7.42,-11.87,14.0000,212.0000
1978-07-30 17:00:00 UTC,2443720.208333,28.8669,-94.6981,0105,-7.62,-11.74,14.0000,213.0000
1978-07-30 18:00:00 UTC,2443720.250000,28.8669,-94.6981,0105,-6.50,-11.26,13.0000,210.0000
1978-07-30 19:00:00 UTC,2443720.291667,28.8669,-94.6981,0105,-8.78,-6.62,11.0000,233.0000
1978-07-30 20:00:00 UTC,2443720.333333,28.8669,-94.6981,0105,-8.43,-7.07,11.0000,230.0000
1978-07-30 21:00:00 UTC,2443720.375000,28.8669,-94.6981,0105,-5.48,-2.44,6.0000,246.0000
1978-07-30 22:00:00 UTC,2443720.416667,28.8669,-94.6981,0105,1.27,2.72,3.0000,25.0000
1978-07-30 23:00:00 UTC,2443720.458333,28.8669,-94.6981,0105,5.94,3.71,7.0000,58.0000
1978-07-30 23:30:00 UTC,2443720.479167,28.8669,-94.6981,0105,9.80,4.99,11.0000,63.0000
1978-07-31 01:00:00 UTC,2443720.541667,28.8669,-94.6981,0105,14.26,7.26,16.0000,63.0000
1978-07-31 02:00:00 UTC,2443720.583333,28.8669,-94.6981,0105,15.59,3.60,16.0000,77.0000
1978-07-31 03:00:00 UTC,2443720.625000,28.8669,-94.6981,0105,13.58,3.39,14.0000,76.0000
1978-07-31 04:00:00 UTC,2443720.666667,28.8669,-94.6981,0105,8.91,1.25,9.0000,82.0000
1978-07-31 05:00:00 UTC,2443720.708333,28.8669,-94.6981,0105,6.85,1.46,7.0000,78.0000
1978-07-31 06:00:00 UTC,2443720.750000,28.8669,-94.6981,0105,6.97,0.61,7.0000,85.0000
1978-07-31 07:00:00 UTC,2443720.791667,28.8669,-94.6981,0105,7.56,2.60,8.0000,71.0000
1978-07-31 08:00:00 UTC,2443720.833333,28.8669,-94.6981,0105,7.73,2.07,8.0000,75.0000
1978-07-31 09:00:00 UTC,2443720.875000,28.8669,-94.6981,0105,4.77,5.12,7.0000,43.0000
1978-07-31 10:00:00 UTC,2443720.916667,28.8669,-94.6981,0105,5.29,7.28,9.0000,36.0000
1978-07-31 11:00:00 UTC,2443720.958333,28.8669,-94.6981,0105,-5.74,8.19,10.0000,325.0000
1978-07-31 12:00:00 UTC,2443721.000000,28.8669,-94.6981,0105,-4.59,5.28,7.0000,319.0000
1978-07-31 13:00:00 UTC,2443721.041667,28.8669,-94.6981,0105,4.21,5.59,7.0000,37.0000
1978-07-31 14:00:00 UTC,2443721.083333,28.8669,-94.6981,0105,-5.80,3.91,7.0000,304.0000
1978-07-31 15:00:00 UTC,2443721.125000,28.8669,-94.6981,0105,-4.49,2.19,5.0000,296.0000
1978-07-31 16:00:00 UTC,2443721.166667,28.8669,-94.6981,0105,-5.77,1.65,6.0000,286.0000
1978-07-31 17:00:00 UTC,2443721.208333,28.8669,-94.6981,0105,-7.61,2.47,8.0000,288.0000
1978-07-31 18:00:00 UTC,2443721.250000,28.8669,-94.6981,0105,-6.34,2.96,7.0000,295.0000
1978-07-31 19:00:00 UTC,2443721.291667,28.8669,-94.6981,0105,-6.12,3.39,7.0000,299.0000
1978-07-31 20:00:00 UTC,2443721.333333,28.8669,-94.6981,0105,-5.90,6.79,9.0000,319.0000
1978-07-31 21:00:00 UTC,2443721.375000,28.8669,-94.6981,0105,-7.36,8.17,11.0000,318.0000
1978-07-31 22:00:00 UTC,2443721.416667,28.8669,-94.6981,0105,-6.31,9.01,11.0000,325.0000
1978-07-31 23:00:00 UTC,2443721.458333,28.8669,-94.6981,0105,7.55,6.56,10.0000,49.0000
1978-07-31 23:30:00 UTC,2443721.479167,28.8669,-94.6981,0105,7.78,7.78,11.0000,45.0000
1978-08-01 01:00:00 UTC,2443721.541667,28.8669,-94.6981,0105,5.77,1.65,6.0000,74.0000
1978-08-01 02:00:00 UTC,2443721.583333,28.8669,-94.6981,0105,0.10,3.00,3.0000,2.0000
1978-08-01 03:00:00 UTC,2443721.625000,28.8669,-94.6981,0105,-5.83,9.33,11.0000,328.0000
1978-08-01 04:00:00 UTC,2443721.666667,28.8669,-94.6981,0105,-4.47,10.05,11.0000,336.0000
1978-08-01 05:00:00 UTC,2443721.708333,28.8669,-94.6981,0105,-4.38,8.99,10.0000,334.0000
1978-08-01 06:00:00 UTC,2443721.750000,28.8669,-94.6981,0105,-3.39,6.12,7.0000,331.0000
1978-08-01 07:00:00 UTC,2443721.791667,28.8669,-94.6981,0105,-2.78,8.56,9.0000,342.0000
1978-08-01 08:00:00 UTC,2443721.833333,28.8669,-94.6981,0105,-3.63,7.13,8.0000,333.0000
1978-08-01 09:00:00 UTC,2443721.875000,28.8669,-94.6981,0105,-1.50,3.71,4.0000,338.0000
1978-08-01 10:00:00 UTC,2443721.916667,28.8669,-94.6981,0105,-3.08,8.46,9.0000,340.0000
1978-08-01 11:00:00 UTC,2443721.958333,28.8669,-94.6981,0105,-6.31,9.01,11.0000,325.0000
1978-08-01 12:00:00 UTC,2443722.000000,28.8669,-94.6981,0105,-3.00,7.42,8.0000,338.0000
1978-08-01 13:00:00 UTC,2443722.041667,28.8669,-94.6981,0105,-4.09,8.02,9.0000,333.0000
1978-08-01 14:00:00 UTC,2443722.083333,28.8669,-94.6981,0105,-4.12,6.86,8.0000,329.0000
1978-08-01 15:00:00 UTC,2443722.125000,28.8669,-94.6981,0105,-7.13,3.63,8.0000,297.0000
1978-08-01 16:00:00 UTC,2443722.166667,28.8669,-94.6981,0105,-12.50,3.58,13.0000,286.0000
1978-08-01 17:00:00 UTC,2443722.208333,28.8669,-94.6981,0105,-13.52,3.62,14.0000,285.0000
1978-08-01 18:00:00 UTC,2443722.250000,28.8669,-94.6981,0105,-13.58,3.39,14.0000,284.0000
1978-08-01 19:00:00 UTC,2443722.291667,28.8669,-94.6981,0105,-13.81,5.86,15.0000,293.0000
1978-08-01 20:00:00 UTC,2443722.333333,28.8669,-94.6981,0105,-9.71,7.05,12.0000,306.0000
1978-08-01 21:00:00 UTC,2443722.375000,28.8669,-94.6981,0105,-10.78,7.27,13.0000,304.0000
1978-08-01 22:00:00 UTC,2443722.416667,28.8669,-94.6981,0105,-10.28,12.26,16.0000,320.0000
1978-08-01 23:00:00 UTC,2443722.458333,28.8669,-94.6981,0105,-3.39,13.58,14.0000,346.0000
1978-08-01 23:30:00 UTC,2443722.479167,28.8669,-94.6981,0105,-4.33,13.31,14.0000,342.0000
1978-08-02 01:00:00 UTC,2443722.541667,28.8669,-94.6981,0105,-5.81,15.97,17.0000,340.0000
1978-08-02 02:00:00 UTC,2443722.583333,28.8669,-94.6981,0105,-2.92,12.67,13.0000,347.0000
1978-08-02 03:00:00 UTC,2443722.625000,28.8669,-94.6981,0105,-3.91,11.35,12.0000,341.0000
1978-08-02 04:00:00 UTC,2443722.666667,28.8669,-94.6981,0105,-3.00,7.42,8.0000,338.0000
1978-08-02 05:00:00 UTC,2443722.708333,28.8669,-94.6981,0105,-3.61,4.79,6.0000,323.0000
1978-08-02 06:00:00 UTC,2443722.750000,28.8669,-94.6981,0105,-4.11,5.66,7.0000,324.0000
1978-08-02 07:00:00 UTC,2443722.791667,28.8669,-94.6981,0105,-2.29,3.28,4.0000,325.0000
1978-08-02 08:00:00 UTC,2443722.833333,28.8669,-94.6981,0105,-2.50,4.33,5.0000,330.0000
1978-08-02 09:00:00 UTC,2443722.875000,28.8669,-94.6981,0105,-3.08,3.94,5.0000,322.0000
1978-08-02 10:00:00 UTC,2443722.916667,28.8669,-94.6981,0105,-1.45,5.82,6.0000,346.0000
1978-08-02 11:00:00 UTC,2443722.958333,28.8669,-94.6981,0105,-1.21,4.85,5.0000,346.0000
1978-08-02 12:00:00 UTC,2443723.000000,28.8669,-94.6981,0105,-1.95,4.60,5.0000,337.0000
1978-08-02 13:00:00 UTC,2443723.041667,28.8669,-94.6981,0105,-2.73,2.93,4.0000,317.0000
1978-08-02 14:00:00 UTC,2443723.083333,28.8669,-94.6981,0105,-2.00,0.07,2.0000,272.0000
1978-08-02 15:00:00 UTC,2443723.125000,28.8669,-94.6981,0105,-7.56,-2.60,8.0000,251.0000
1978-08-02 16:00:00 UTC,2443723.166667,28.8669,-94.6981,0105,-7.94,-0.97,8.0000,263.0000
1978-08-02 17:00:00 UTC,2443723.208333,28.8669,-94.6981,0105,-9.89,-4.82,11.0000,244.0000
1978-08-02 18:00:00 UTC,2443723.250000,28.8669,-94.6981,0105,-11.74,-7.62,14.0000,237.0000
1978-08-02 19:00:00 UTC,2443723.291667,28.8669,-94.6981,0105,-14.27,-4.64,15.0000,252.0000
1978-08-02 20:00:00 UTC,2443723.333333,28.8669,-94.6981,0105,-11.97,0.84,12.0000,274.0000
1978-08-02 21:00:00 UTC,2443723.375000,28.8669,-94.6981,0105,-9.53,5.50,11.0000,300.0000
1978-08-02 22:00:00 UTC,2443723.416667,28.8669,-94.6981,0105,-8.30,7.22,11.0000,311.0000
1978-08-02 23:00:00 UTC,2443723.458333,28.8669,-94.6981,0105,-4.65,9.97,11.0000,335.0000
1978-08-02 23:30:00 UTC,2443723.479167,28.8669,-94.6981,0105,-5.67,9.43,11.0000,329.0000
1978-08-03 01:00:00 UTC,2443723.541667,28.8669,-94.6981,0105,-4.10,11.28,12.0000,340.0000
1978-08-03 02:00:00 UTC,2443723.583333,28.8669,-94.6981,0105,-6.30,11.37,13.0000,331.0000
1978-08-03 03:00:00 UTC,2443723.625000,28.8669,-94.6981,0105,-3.40,10.46,11.0000,342.0000
1978-08-03 04:00:00 UTC,2443723.666667,28.8669,-94.6981,0105,-3.09,9.51,10.0000,342.0000
1978-08-03 05:00:00 UTC,2443723.708333,28.8669,-94.6981,0105,-3.25,7.31,8.0000,336.0000
1978-08-03 06:00:00 UTC,2443723.750000,28.8669,-94.6981,0105,-4.77,5.12,7.0000,317.0000
1978-08-03 07:00:00 UTC,2443723.791667,28.8669,-94.6981,0105,-6.93,4.00,8.0000,300.0000
1978-08-03 08:00:00 UTC,2443723.833333,28.8669,-94.6981,0105,-6.58,2.39,7.0000,290.0000
1978-08-03 09:00:00 UTC,2443723.875000,28.8669,-94.6981,0105,-4.29,2.58,5.0000,301.0000
1978-08-03 10:00:00 UTC,2443723.916667,28.8669,-94.6981,0105,-3.15,2.46,4.0000,308.0000
1978-08-03 11:00:00 UTC,2443723.958333,28.8669,-94.6981,0105,-3.46,2.00,4.0000,300.0000
1978-08-03 12:00:00 UTC,2443724.000000,28.8669,-94.6981,0105,-3.65,1.63,4.0000,294.0000
1978-08-03 13:00:00 UTC,2443724.041667,28.8669,-94.6981,0105,-2.84,0.98,3.0000,289.0000
1978-08-03 14:00:00 UTC,2443724.083333,28.8669,-94.6981,0105,-3.98,0.35,4.0000,275.0000
1978-08-03 15:00:00 UTC,2443724.125000,28.8669,-94.6981,0105,-4.87,-1.12,5.0000,257.0000
1978-08-03 16:00:00 UTC,2443724.166667,28.8669,-94.6981,0105,-9.61,-2.76,10.0000,254.0000
1978-08-03 17:00:00 UTC,2443724.208333,28.8669,-94.6981,0105,-11.41,-3.71,12.0000,252.0000
1978-08-03 18:00:00 UTC,2443724.250000,28.8669,-94.6981,0105,-12.79,-5.69,14.0000,246.0000
1978-08-03 19:00:00 UTC,2443724.291667,28.8669,-94.6981,0105,-15.22,-4.94,16.0000,252.0000
1978-08-03 20:00:00 UTC,2443724.333333,28.8669,-94.6981,0105,-13.46,-3.86,14.0000,254.0000
1978-08-03 21:00:00 UTC,2443724.375000,28.8669,-94.6981,0105,-13.70,-6.10,15.0000,246.0000
1978-08-03 22:00:00 UTC,2443724.416667,28.8669,-94.6981,0105,-14.00,-0.24,14.0000,269.0000
1978-08-03 23:00:00 UTC,2443724.458333,28.8669,-94.6981,0105,-9.89,4.82,11.0000,296.0000
1978-08-03 23:30:00 UTC,2443724.479167,28.8669,-94.6981,0105,-10.50,5.82,12.0000,299.0000
1978-08-04 01:00:00 UTC,2443724.541667,28.8669,-94.6981,0105,-7.46,10.65,13.0000,325.0000
1978-08-04 02:00:00 UTC,2443724.583333,28.8669,-94.6981,0105,-5.99,9.23,11.0000,327.0000
1978-08-04 03:00:00 UTC,2443724.625000,28.8669,-94.6981,0105,-2.91,5.25,6.0000,331.0000
1978-08-04 04:00:00 UTC,2443724.666667,28.8669,-94.6981,0105,-2.12,3.39,4.0000,328.0000
1978-08-04 05:00:00 UTC,2443724.708333,28.8669,-94.6981,0105,-2.19,2.05,3.0000,313.0000
1978-08-04 06:00:00 UTC,2443724.750000,28.8669,-94.6981,0105,-1.85,0.75,2.0000,292.0000
1978-08-04 07:00:00 UTC,2443724.791667,28.8669,-94.6981,0105,-3.94,0.69,4.0000,280.0000
1978-08-04 08:00:00 UTC,2443724.833333,28.8669,-94.6981,0105,-3.91,-0.83,4.0000,258.0000
1978-08-04 09:00:00 UTC,2443724.875000,28.8669,-94.6981,0105,-2.78,-1.12,3.0000,248.0000
1978-08-04 10:00:00 UTC,2443724.916667,28.8669,-94.6981,0105,-2.88,-0.83,3.0000,254.0000
1978-08-04 11:00:00 UTC,2443724.958333,28.8669,-94.6981,0105,-1.73,1.00,2.0000,300.0000
1978-08-04 12:00:00 UTC,2443725.000000,28.8669,-94.6981,0105,0.54,0.84,1.0000,33.0000
1978-08-04 13:00:00 UTC,2443725.041667,28.8669,-94.6981,0105,1.39,1.44,2.0000,44.0000
1978-08-04 14:00:00 UTC,2443725.083333,28.8669,-94.6981,0105,2.93,0.62,3.0000,78.0000
1978-08-04 15:00:00 UTC,2443725.125000,28.8669,-94.6981,0105,1.89,-2.33,3.0000,141.0000
1978-08-04 16:00:00 UTC,2443725.166667,28.8669,-94.6981,0105,0.03,-2.00,2.0000,179.0000
1978-08-04 17:00:00 UTC,2443725.208333,28.8669,-94.6981,0105,-1.08,-2.80,3.0000,201.0000
1978-08-04 18:00:00 UTC,2443725.250000,28.8669,-94.6981,0105,-3.91,-5.80,7.0000,214.0000
1978-08-04 19:00:00 UTC,2443725.291667,28.8669,-94.6981,0105,-6.47,-8.90,11.0000,216.0000
1978-08-04 20:00:00 UTC,2443725.333333,28.8669,-94.6981,0105,-8.34,-8.63,12.0000,224.0000
1978-08-04 21:00:00 UTC,2443725.375000,28.8669,-94.6981,0105,-11.98,-9.03,15.0000,233.0000
1978-08-04 22:00:00 UTC,2443725.416667,28.8669,-94.6981,0105,-10.57,-3.03,11.0000,254.0000
1978-08-04 23:00:00 UTC,2443725.458333,28.8669,-94.6981,0105,-9.98,-0.70,10.0000,266.0000
1978-08-04 23:30:00 UTC,2443725.479167,28.8669,-94.6981,0105,-8.56,2.78,9.0000,288.0000
1978-08-05 01:00:00 UTC,2443725.541667,28.8669,-94.6981,0105,-10.20,4.12,11.0000,292.0000
1978-08-05 02:00:00 UTC,2443725.583333,28.8669,-94.6981,0105,-4.73,3.69,6.0000,308.0000
1978-08-05 03:00:00 UTC,2443725.625000,28.8669,-94.6981,0105,-5.79,6.89,9.0000,320.0000
1978-08-05 04:00:00 UTC,2443725.666667,28.8669,-94.6981,0105,-7.07,8.43,11.0000,320.0000
1978-08-05 05:00:00 UTC,2443725.708333,28.8669,-94.6981,0105,-4.60,3.86,6.0000,310.0000
1978-08-05 06:00:00 UTC,2443725.750000,28.8669,-94.6981,0105,-9.14,4.07,10.0000,294.0000
1978-08-05 07:00:00 UTC,2443725.791667,28.8669,-94.6981,0105,-9.88,1.56,10.0000,279.0000
1978-08-05 08:00:00 UTC,2443725.833333,28.8669,-94.6981,0105,-13.52,-3.62,14.0000,255.0000
1978-08-05 09:00:00 UTC,2443725.875000,28.8669,-94.6981,0105,-17.47,-4.35,18.0000,256.0000
1978-08-05 10:00:00 UTC,2443725.916667,28.8669,-94.6981,0105,-16.07,-5.53,17.0000,251.0000
1978-08-05 11:00:00 UTC,2443725.958333,28.8669,-94.6981,0105,-18.17,-5.56,19.0000,253.0000
1978-08-05 12:00:00 UTC,2443726.000000,28.8669,-94.6981,0105,-17.73,-3.13,18.0000,260.0000
1978-08-05 13:00:00 UTC,2443726.041667,28.8669,-94.6981,0105,-15.94,-1.39,16.0000,265.0000
1978-08-05 14:00:00 UTC,2443726.083333,28.8669,-94.6981,0105,-15.91,-1.67,16.0000,264.0000
1978-08-05 15:00:00 UTC,2443726.125000,28.8669,-94.6981,0105,-15.00,0.26,15.0000,271.0000
1978-08-05 16:00:00 UTC,2443726.166667,28.8669,-94.6981,0105,-17.78,-2.82,18.0000,261.0000
1978-08-05 17:00:00 UTC,2443726.208333,28.8669,-94.6981,0105,-18.79,-6.84,20.0000,250.0000
1978-08-05 18:00:00 UTC,2443726.250000,28.8669,-94.6981,0105,-21.33,-8.62,23.0000,248.0000
1978-08-05 19:00:00 UTC,2443726.291667,28.8669,-94.6981,0105,-22.28,-11.35,25.0000,243.0000
1978-08-05 20:00:00 UTC,2443726.333333,28.8669,-94.6981,0105,-25.82,-7.89,27.0000,253.0000
1978-08-05 21:00:00 UTC,2443726.375000,28.8669,-94.6981,0105,-28.01,-7.51,29.0000,255.0000
1978-08-05 22:00:00 UTC,2443726.416667,28.8669,-94.6981,0105,-27.93,-1.95,28.0000,266.0000
1978-08-05 23:00:00 UTC,2443726.458333,28.8669,-94.6981,0105,-24.90,2.18,25.0000,275.0000
1978-08-05 23:30:00 UTC,2443726.479167,28.8669,-94.6981,0105,-25.23,6.29,26.0000,284.0000
1978-08-06 01:00:00 UTC,2443726.541667,28.8669,-94.6981,0105,-23.38,5.40,24.0000,283.0000
1978-08-06 02:00:00 UTC,2443726.583333,28.8669,-94.6981,0105,-20.54,7.88,22.0000,291.0000
1978-08-06 03:00:00 UTC,2443726.625000,28.8669,-94.6981,0105,-14.56,10.58,18.0000,306.0000
1978-08-06 04:00:00 UTC,2443726.666667,28.8669,-94.6981,0105,-13.40,10.47,17.0000,308.0000
1978-08-06 05:00:00 UTC,2443726.708333,28.8669,-94.6981,0105,-11.41,3.71,12.0000,288.0000
1978-08-06 06:00:00 UTC,2443726.750000,28.8669,-94.6981,0105,-14.77,2.60,15.0000,280.0000
1978-08-06 07:00:00 UTC,2443726.791667,28.8669,-94.6981,0105,-13.99,0.49,14.0000,272.0000
1978-08-06 08:00:00 UTC,2443726.833333,28.8669,-94.6981,0105,-13.92,-1.46,14.0000,264.0000
1978-08-06 09:00:00 UTC,2443726.875000,28.8669,-94.6981,0105,-15.52,-3.87,16.0000,256.0000
1978-08-06 10:00:00 UTC,2443726.916667,28.8669,-94.6981,0105,-14.42,-4.13,15.0000,254.0000
1978-08-06 11:00:00 UTC,2443726.958333,28.8669,-94.6981,0105,-13.83,-2.19,14.0000,261.0000
1978-08-06 12:00:00 UTC,2443727.000000,28.8669,-94.6981,0105,-15.96,-1.12,16.0000,266.0000
1978-08-06 13:00:00 UTC,2443727.041667,28.8669,-94.6981,0105,-16.79,-2.66,17.0000,261.0000
1978-08-06 14:00:00 UTC,2443727.083333,28.8669,-94.6981,0105,-11.78,2.29,12.0000,281.0000
1978-08-06 15:00:00 UTC,2443727.125000,28.8669,-94.6981,0105,-11.78,2.29,12.0000,281.0000
1978-08-06 16:00:00 UTC,2443727.166667,28.8669,-94.6981,0105,-10.05,4.47,11.0000,294.0000
1978-08-06 17:00:00 UTC,2443727.208333,28.8669,-94.6981,0105,-11.98,0.63,12.0000,273.0000